Regional Weather Roundup
Issued by NWS

Home | Current Version | Previous Version | Graphics & Text | Print | Product List | Glossary On
Versions: 1 2 3 4 5 6 7 8 9 10 11 12 13 14 15 16 17 18 19 20 21 22 23 24 25 26 27 28 29 30 31 32 33 34 35 36 37 38 39 40 41 42 43 44 45 46 47 48 49 50
000
ASUS43 KLMK 201510
RWRKY
KENTUCKY REGIONAL WEATHER ROUNDUP
NATIONAL WEATHER SERVICE LOUISVILLE KY
1100 AM EDT WED AUG 20 2014

NOTE "FAIR" INDICATES FEW OR NO CLOUDS BELOW 12,000 FEET
WITH NO SIGNIFICANT WEATHER AND/OR OBSTRUCTIONS TO VISIBILITY.

KYZ001>023-026-027-061>063-070>075-201600-
WESTERN AND SOUTH CENTRAL KENTUCKY

CITY           SKY/WX    TMP DP  RH WIND       PRES   REMARKS
PADUCAH        PTSUNNY   85  76  74 W8        29.96R HX  94
HENDERSON      PTSUNNY   84  75  74 SW6       29.93R HX  92
OWENSBORO      MOSUNNY   85  77  77 SW6       29.95R HX  95
HOPKINSVILLE   SUNNY     86  78  77 SW10      29.97R HX  98
BOWLING GREEN  PTSUNNY   83  76  79 W8        29.97R HX  91
GLASGOW        CLOUDY    80  74  82 SW5       29.98R
$$

KYZ024-025-028>034-038-045-046-053-201600-
NORTH CENTRAL KENTUCKY

CITY           SKY/WX    TMP DP  RH WIND       PRES   REMARKS
LOUISVILLE/SDF MOSUNNY   83  72  69 CALM      29.96R
LOUISVILLE/LOU SUNNY     81  72  74 CALM      29.96R
FORT KNOX      SUNNY     83  70  65 VRB2      29.96R
$$

KYZ035>037-039>044-047>052-055>060-089>105-201600-
NORTHEAST KENTUCKY

CITY           SKY/WX    TMP DP  RH WIND       PRES   REMARKS
LEXINGTON      MOSUNNY   81  72  74 S8        29.98R
COVINGTON      MOSUNNY   76  70  82 SW5       29.96R
FRANKFORT      MOSUNNY   79  71  76 SW5       29.96R
$$

KYZ054-064>069-076>088-106>120-201600-
SOUTHEAST KENTUCKY

CITY           SKY/WX    TMP DP  RH WIND       PRES   REMARKS
JACKSON        PTSUNNY   74  69  85 CALM      30.03R
LONDON         PTSUNNY   81  71  71 SW6       30.02R
SOMERSET       CLOUDY    79  73  83 SW5       30.02R
MIDDLESBORO    MOSUNNY   81  72  74 SE3       30.04R
MONTICELLO     PTSUNNY   83  76  79 W7        30.02R HX  91
$$




USA.gov is the U.S. government's official web portal to all federal, state and local government web resources and services.